Flag for Germany Weather past 2 weeks in Emsdetten, North Rhine-Westphalia, Germany

Now
57 °F

Sunny.


Feels Like: 56 °F
Forecast: 37 / 56 °F
Wind: 7 mph from Northeast

Location: Muenster / Osnabrueck

Current Time: Apr 18, 2015 at 6:52:45 PM

Latest Report: Apr 18, 2015 at 6:20 PM


Visibility: 10 mi

Pressure: 30.27 "Hg

Humidity: 31%

Dew point: 27 °F

Location of EmsdettenLocation

Historic Weather in Emsdetten — Graph

°F

Emsdetten temperature yesterday

Maximum temperature yesterday: 54 °F (at 2:20 PM)
Minimum temperature yesterday: 39 °F (at 5:20 AM)
Average temperature yesterday: 47 °F

Past Weeks' High & Low Weather Summary

 TemperatureHumidityPressure
High73 °F (Apr 15, 2:50 PM)100% (Apr 5, 7:50 AM)30.60 "Hg (Apr 5, 7:50 AM)
Low28 °F (Apr 5, 7:20 AM)31% (Apr 12, 7:20 PM)29.92 "Hg (Apr 15, 5:50 PM)
Average48 °F69%30.24 "Hg
* Reported Apr 3 5:20 PM — Apr 18 5:20 PM, Emsdetten, Weather by CustomWeather, © 2015

Note: Actual official high and low records may vary slightly from our data, if they occured in-between our weather recording intervals... More about our weather records

Advertising

Emsdetten weather history for previous 24 hours

 ConditionsComfort  
Time TempWeatherWind HumidityBarometerVisibility
5:20 PM
Sat, Apr 18
57 °FSunny.2 mph33%30.27 "Hg10 mi
4:50 PM55 °FSunny.6 mph38%30.30 "Hg10 mi
4:20 PM55 °FPassing clouds.7 mph33%30.30 "HgN/A
3:50 PM55 °FPassing clouds.6 mph36%30.30 "HgN/A
3:20 PM55 °FPassing clouds.6 mph36%30.33 "HgN/A
2:50 PM55 °FSunny.7 mph36%30.33 "Hg10 mi
2:20 PM55 °FPassing clouds.5 mph36%30.33 "HgN/A
1:50 PM54 °FPassing clouds.6 mph38%30.33 "HgN/A
1:20 PM54 °FSunny.8 mph44%30.33 "Hg10 mi
12:50 PM55 °FPassing clouds.8 mph44%30.36 "HgN/A
12:20 PM54 °FPassing clouds.9 mph47%30.36 "HgN/A
11:50 AM54 °FPassing clouds.12 mph44%30.36 "HgN/A
11:20 AM50 °FPassing clouds.10 mph50%30.36 "HgN/A
10:50 AM50 °FPassing clouds.12 mph58%30.36 "HgN/A
10:20 AM50 °FSunny.10 mph58%30.33 "Hg10 mi
9:50 AM48 °FSunny.7 mph62%30.33 "Hg10 mi
9:20 AM46 °FPassing clouds.5 mph66%30.33 "HgN/A
8:50 AM45 °FSunny.5 mph76%30.33 "Hg10 mi
8:20 AM43 °FSunny.3 mph76%30.33 "Hg10 mi
7:50 AM37 °FSunny.2 mph93%30.33 "Hg10 mi
7:20 AM34 °FClear.2 mph93%30.30 "Hg10 mi
6:50 AM32 °FFog.2 mph100%30.30 "HgN/A
6:20 AM34 °FFog.2 mph93%30.30 "HgN/A
5:50 AM32 °FFog.2 mph93%30.27 "HgN/A
5:20 AM36 °FFog.1 mph87%30.27 "HgN/A
4:50 AM36 °FClear.1 mph93%30.27 "Hg10 mi
4:20 AM36 °FClear.2 mph93%30.27 "Hg10 mi
3:50 AM36 °FClear.3 mph87%30.27 "Hg10 mi
3:20 AM37 °FClear.3 mph87%30.27 "Hg10 mi
2:50 AM37 °FClear.5 mph87%30.24 "Hg10 mi
2:20 AM37 °FClear.5 mph81%30.24 "Hg10 mi
1:50 AM39 °FClear.6 mph75%30.24 "Hg10 mi
1:20 AM39 °FClear.6 mph75%30.24 "Hg10 mi
12:50 AM39 °FClear.6 mph75%30.24 "Hg10 mi
12:20 AM41 °FClear.6 mph70%30.21 "Hg10 mi
11:50 PM
Fri, Apr 17
41 °FClear.6 mph70%30.21 "Hg10 mi
11:20 PM43 °FClear.6 mph66%30.21 "Hg10 mi
10:50 PM45 °FClear.7 mph61%30.18 "Hg10 mi
10:20 PM45 °FClear.6 mph61%30.18 "Hg10 mi
9:50 PM45 °FClear.3 mph57%30.18 "Hg10 mi
9:20 PM46 °FSunny.3 mph53%30.15 "Hg10 mi
8:50 PM46 °FSunny.5 mph53%30.15 "Hg10 mi
8:20 PM48 °FSunny.6 mph50%30.12 "Hg10 mi
7:50 PM50 °FSunny.8 mph47%30.12 "Hg10 mi
7:20 PM52 °FSunny.8 mph47%30.09 "Hg10 mi
6:50 PM52 °FSunny.10 mph41%30.09 "Hg10 mi
6:20 PM54 °FSunny.8 mph41%30.09 "Hg10 mi
Weather by CustomWeather, © 2015

See weather overviewHow to use our weather pages